When you browse on this site, cookies collect data to enhance your experience and personalize the content and advertising you see.
Visit our Privacy Policy to learn more. By continuing to use the site, you agree to this use of cookies and data.
  • In Czech Republic
  • List of Countries
  • For 7 days
  • Water Temperature
  • Weather Map
  • Weather Widgets
  • user-avatar
    Login

    Hourly Weather Malanville

    Today, 6 June, Saturday

    Time Temperature Precipitation Wind Pressure Humidity
    00:00 +35°C° 0 mm 5 mps 743 mmHg 46%
    01:00 +35°C° 0 mm 5 mps 743 mmHg 49%
    02:00 +34°C° 0 mm 4 mps 743 mmHg 52%
    03:00 +33°C° 0 mm 4 mps 743 mmHg 55%
    04:00 +33°C° 0 mm 3 mps 743 mmHg 56%
    05:00 +33°C° 0 mm 3 mps 744 mmHg 57%
    06:00 +33°C° 0 mm 3 mps 745 mmHg 59%
    07:00 +34°C° 0 mm 3 mps 745 mmHg 54%
    08:00 +36°C° 0 mm 4 mps 745 mmHg 49%
    09:00 +37°C° 0 mm 4 mps 745 mmHg 44%
    10:00 +39°C° 0 mm 3 mps 744 mmHg 40%
    11:00 +40°C° 0 mm 3 mps 744 mmHg 36%
    12:00 +42°C° 0 mm 2 mps 744 mmHg 30%
    13:00 +42°C° 0 mm 2 mps 743 mmHg 28%
    14:00 +43°C° 0 mm 2 mps 742 mmHg 27%
    15:00 +43°C° 0 mm 2 mps 741 mmHg 26%
    16:00 +43°C° 0 mm 3 mps 741 mmHg 26%
    17:00 +43°C° 0 mm 3 mps 741 mmHg 27%
    18:00 +42°C° 0 mm 3 mps 741 mmHg 28%
    19:00 +39°C° 0.6 mm 7 mps 742 mmHg 41%
    20:00 +36°C° 0.6 mm 10 mps 743 mmHg 53%
    21:00 +32°C° 0.6 mm 14 mps 743 mmHg 66%
    22:00 +31°C° 1.7 mm 12 mps 744 mmHg 64%
    23:00 +31°C° 1.7 mm 10 mps 744 mmHg 61%

    Tomorrow, 7 June, Sunday

    Time Temperature Precipitation Wind Pressure Humidity
    00:00 +31°C° 1.7 mm 8 mps 745 mmHg 59%
    01:00 +29°C° 0.6 mm 7 mps 744 mmHg 62%
    02:00 +29°C° 0.6 mm 5 mps 744 mmHg 64%
    03:00 +29°C° 0.6 mm 4 mps 743 mmHg 67%
    04:00 +28°C° 0.3 mm 4 mps 744 mmHg 69%
    05:00 +28°C° 0.3 mm 4 mps 744 mmHg 70%
    06:00 +28°C° 0.3 mm 4 mps 744 mmHg 72%
    07:00 +29°C° 0 mm 3 mps 745 mmHg 68%
    08:00 +30°C° 0 mm 3 mps 745 mmHg 63%
    09:00 +31°C° 0 mm 2 mps 746 mmHg 59%
    10:00 +33°C° 0 mm 3 mps 745 mmHg 54%
    11:00 +34°C° 0 mm 3 mps 745 mmHg 49%
    12:00 +36°C° 0 mm 4 mps 744 mmHg 44%
    13:00 +37°C° 0 mm 3 mps 743 mmHg 41%
    14:00 +38°C° 0 mm 3 mps 743 mmHg 38%
    15:00 +38°C° 0 mm 2 mps 742 mmHg 35%
    16:00 +38°C° 0 mm 2 mps 741 mmHg 37%
    17:00 +38°C° 0 mm 2 mps 741 mmHg 38%
    18:00 +37°C° 0 mm 2 mps 741 mmHg 39%
    19:00 +36°C° 0 mm 2 mps 742 mmHg 41%
    20:00 +35°C° 0 mm 3 mps 742 mmHg 44%
    21:00 +34°C° 0 mm 4 mps 743 mmHg 46%
    22:00 +34°C° 0.4 mm 4 mps 743 mmHg 50%
    23:00 +33°C° 0.4 mm 4 mps 743 mmHg 54%

    Day after tomorrow, 8 June, Monday

    Time Temperature Precipitation Wind Pressure Humidity
    00:00 +32°C° 0.4 mm 4 mps 743 mmHg 58%
    01:00 +32°C° 0.3 mm 4 mps 742 mmHg 60%
    02:00 +30°C° 0.3 mm 3 mps 742 mmHg 62%
    03:00 +30°C° 0.3 mm 3 mps 742 mmHg 64%
    04:00 +30°C° 0.1 mm 3 mps 742 mmHg 65%
    05:00 +30°C° 0.1 mm 3 mps 742 mmHg 67%
    06:00 +30°C° 0.1 mm 4 mps 743 mmHg 68%
    07:00 +32°C° 0 mm 4 mps 743 mmHg 63%
    08:00 +33°C° 0 mm 5 mps 743 mmHg 58%
    09:00 +35°C° 0 mm 5 mps 743 mmHg 53%
    10:00 +36°C° 0 mm 6 mps 743 mmHg 48%
    11:00 +39°C° 0 mm 6 mps 743 mmHg 43%
    12:00 +41°C° 0 mm 6 mps 742 mmHg 38%
    13:00 +41°C° 0 mm 5 mps 742 mmHg 35%
    14:00 +42°C° 0 mm 4 mps 741 mmHg 33%
    15:00 +43°C° 0 mm 4 mps 740 mmHg 31%
    16:00 +42°C° 0 mm 4 mps 740 mmHg 33%
    17:00 +40°C° 0 mm 3 mps 740 mmHg 35%
    18:00 +39°C° 0 mm 3 mps 740 mmHg 37%
    19:00 +38°C° 0.1 mm 4 mps 740 mmHg 40%
    20:00 +37°C° 0.1 mm 4 mps 741 mmHg 43%
    21:00 +36°C° 0.1 mm 4 mps 741 mmHg 46%
    22:00 +35°C° 0 mm 5 mps 741 mmHg 50%
    23:00 +34°C° 0 mm 5 mps 742 mmHg 54%

    9 June, Tuesday

    Time Temperature Precipitation Wind Pressure Humidity
    00:00 +34°C° 0 mm 5 mps 742 mmHg 58%
    01:00 +33°C° 0 mm 5 mps 742 mmHg 60%
    02:00 +32°C° 0 mm 5 mps 742 mmHg 63%
    03:00 +32°C° 0 mm 5 mps 742 mmHg 66%
    04:00 +30°C° 0.5 mm 5 mps 742 mmHg 69%
    05:00 +29°C° 0.5 mm 6 mps 742 mmHg 72%
    06:00 +29°C° 0.5 mm 7 mps 742 mmHg 76%
    07:00 +30°C° 0 mm 7 mps 743 mmHg 70%
    08:00 +32°C° 0 mm 6 mps 743 mmHg 63%
    09:00 +34°C° 0 mm 5 mps 743 mmHg 57%
    10:00 +35°C° 0 mm 5 mps 743 mmHg 53%
    11:00 +36°C° 0 mm 6 mps 743 mmHg 49%
    12:00 +38°C° 0 mm 6 mps 742 mmHg 45%
    13:00 +39°C° 0 mm 5 mps 742 mmHg 42%
    14:00 +40°C° 0 mm 5 mps 741 mmHg 38%
    15:00 +41°C° 0 mm 4 mps 741 mmHg 35%
    16:00 +40°C° 0 mm 4 mps 741 mmHg 39%
    17:00 +38°C° 0 mm 4 mps 741 mmHg 42%
    18:00 +37°C° 0 mm 4 mps 741 mmHg 46%
    19:00 +36°C° 0.2 mm 3 mps 742 mmHg 50%
    20:00 +35°C° 0.2 mm 3 mps 742 mmHg 54%
    21:00 +34°C° 0.2 mm 2 mps 743 mmHg 59%
    22:00 +33°C° 0.1 mm 3 mps 743 mmHg 60%
    23:00 +33°C° 0.1 mm 3 mps 743 mmHg 62%

    10 June, Wednesday

    Time Temperature Precipitation Wind Pressure Humidity
    00:00 +31°C° 0.1 mm 3 mps 743 mmHg 64%
    01:00 +32°C° 0 mm 4 mps 743 mmHg 66%
    02:00 +32°C° 0 mm 4 mps 743 mmHg 68%
    03:00 +30°C° 0 mm 4 mps 742 mmHg 70%
    04:00 +30°C° 0 mm 4 mps 743 mmHg 71%
    05:00 +29°C° 0 mm 5 mps 743 mmHg 72%
    06:00 +29°C° 0 mm 5 mps 744 mmHg 73%
    07:00 +30°C° 0 mm 5 mps 744 mmHg 68%
    08:00 +33°C° 0 mm 5 mps 744 mmHg 62%
    09:00 +34°C° 0 mm 5 mps 745 mmHg 57%
    10:00 +36°C° 0 mm 5 mps 744 mmHg 51%
    11:00 +37°C° 0 mm 5 mps 744 mmHg 46%
    12:00 +40°C° 0 mm 5 mps 743 mmHg 41%
    13:00 +40°C° 0 mm 4 mps 743 mmHg 38%
    14:00 +40°C° 0 mm 3 mps 742 mmHg 36%
    15:00 +42°C° 0 mm 3 mps 742 mmHg 33%
    16:00 +40°C° 0 mm 3 mps 742 mmHg 35%
    17:00 +39°C° 0 mm 3 mps 742 mmHg 37%
    18:00 +38°C° 0 mm 3 mps 742 mmHg 39%
    19:00 +37°C° 0.6 mm 3 mps 742 mmHg 45%
    20:00 +36°C° 0.6 mm 4 mps 743 mmHg 50%
    21:00 +34°C° 0.6 mm 4 mps 743 mmHg 56%
    22:00 +34°C° 0.1 mm 4 mps 743 mmHg 58%
    23:00 +34°C° 0.1 mm 4 mps 743 mmHg 60%

    11 June, Thursday

    Time Temperature Precipitation Wind Pressure Humidity
    00:00 +33°C° 0.1 mm 4 mps 743 mmHg 62%
    01:00 +33°C° 0.1 mm 4 mps 743 mmHg 65%
    02:00 +32°C° 0.1 mm 4 mps 743 mmHg 67%
    03:00 +30°C° 0.1 mm 4 mps 743 mmHg 70%
    04:00 +29°C° 3.3 mm 6 mps 744 mmHg 75%
    05:00 +27°C° 3.3 mm 8 mps 744 mmHg 80%
    06:00 +24°C° 3.3 mm 10 mps 744 mmHg 85%
    07:00 +26°C° 2.4 mm 9 mps 745 mmHg 78%
    08:00 +27°C° 2.4 mm 8 mps 745 mmHg 71%
    09:00 +29°C° 2.4 mm 7 mps 745 mmHg 63%
    10:00 +30°C° 0 mm 6 mps 744 mmHg 59%
    11:00 +33°C° 0 mm 5 mps 744 mmHg 54%
    12:00 +34°C° 0 mm 4 mps 743 mmHg 49%
    13:00 +34°C° 0 mm 5 mps 743 mmHg 50%
    14:00 +35°C° 0 mm 6 mps 742 mmHg 51%
    15:00 +35°C° 0 mm 6 mps 742 mmHg 53%
    16:00 +34°C° 0 mm 6 mps 742 mmHg 55%
    17:00 +33°C° 0 mm 5 mps 742 mmHg 57%
    18:00 +33°C° 0 mm 4 mps 742 mmHg 59%
    19:00 +32°C° 0 mm 4 mps 742 mmHg 62%
    20:00 +30°C° 0 mm 3 mps 742 mmHg 65%
    21:00 +30°C° 0 mm 3 mps 743 mmHg 69%
    22:00 +30°C° 0 mm 3 mps 743 mmHg 69%
    23:00 +29°C° 0 mm 4 mps 743 mmHg 70%
    Show more